Probability
0 0 0 0 0 0 0 0 0 0 0 0 0 0 0 0 0 0 0 0 0 0 0 0 0 0 0 0 0 0 0 3 3 3 3 0 0 0 0 0 0 0 0 0
0 0 0 0 0 0 0 0 0 0 0 0 0 0 0 0 0 0 0 0 0 0 0 0 0 0 0 0 0 0 0 0 3 3 3 0 0 0 0 0 0 0 0 0
0 0 0 0 0 0 0 0 0 0 0 0 0 0 0 0 0 0 0 0 0 0 0 0 0 0 0 0 0 0 0 0 3 3 3 0 0 0 0 0 0 0 0 0
0 0 0 0 0 0 0 0 0 0 0 0 0 0 0 0 0 0 0 0 0 0 0 0 0 0 0 0 0 0 0 0 0 0 3 0 0 0 0 0 0 0 0 0
0 0 0 0 0 0 0 0 0 0 0 0 0 0 0 0 0 0 0 0 0 0 0 0 0 0 0 0 0 0 0 0 0 0 0 0 0 0 0 0 0 0 0 0
0 0 0 0 0 0 0 0 0 0 0 0 0 0 0 0 0 0 0 0 0 0 0 0 0 0 0 0 0 0 0 0 0 0 0 0 0 0 0 0 0 0 0 0
0 0 0 0 0 0 0 0 0 0 0 0 0 0 0 0 0 0 0 0 0 0 0 0 0 0 0 0 0 0 0 0 0 0 0 0 0 0 0 0 0 0 0 0
0 0 0 0 0 0 0 0 0 0 0 0 0 0 0 0 0 0 0 0 0 0 0 0 0 0 0 0 0 0 0 0 0 0 0 0 0 0 0 0 0 0 0 0
0 0 0 0 0 0 0 0 0 0 0 0 0 0 0 0 0 0 0 0 0 0 0 0 0 0 0 0 0 0 0 0 0 0 0 0 0 0 0 0 0 0 0 0
0 0 0 0 0 0 0 0 0 0 0 0 0 0 0 0 0 0 0 0 0 0 0 0 0 0 0 0 0 0 0 0 0 0 0 0 0 0 0 0 0 0 0 0
0 0 0 0 0 0 0 0 0 0 0 0 0 0 0 0 0 0 0 0 0 0 0 0 0 0 0 0 0 0 0 0 0 0 0 0 0 0 0 0 0 0 0 0
0 0 0 0 0 0 0 0 0 0 0 0 0 0 0 0 0 0 0 0 0 0 0 0 0 0 0 0 0 0 0 0 0 0 0 0 0 0 0 0 0 0 0 0
0 0 0 0 0 0 0 0 0 0 0 0 0 0 0 0 0 0 0 0 0 0 0 0 0 0 0 0 0 0 0 0 0 0 0 0 0 0 0 0 0 0 0 0
0 0 0 0 0 0 0 0 0 0 0 0 0 0 0 0 0 0 0 0 0 0 0 0 0 0 0 0 0 0 0 0 0 0 0 0 0 0 0 0 0 0 0 0
0 0 0 0 0 0 0 0 0 0 0 0 0 0 0 0 0 0 0 0 0 0 0 0 0 0 0 0 0 0 0 0 0 0 0 0 0 0 0 0 0 0 0 0
0 0 0 0 0 0 0 0 0 0 0 0 0 0 0 0 0 0 0 0 0 0 0 0 0 0 0 0 0 0 0 0 0 0 0 0 0 0 0 0 0 0 0 0
0 0 0 0 0 0 0 0 0 0 0 0 0 0 0 0 0 0 0 0 0 0 0 0 0 0 0 0 0 0 0 0 0 0 0 0 0 0 0 0 0 0 0 0
0 0 0 0 0 0 0 0 0 0 0 0 0 0 0 0 0 0 0 0 0 0 0 0 0 0 0 0 0 0 0 0 0 0 0 0 0 0 0 0 0 0 0 0
0 0 0 0 0 0 0 0 0 0 0 0 0 0 0 0 0 0 0 0 0 0 0 0 0 0 0 0 0 0 0 0 0 0 0 0 0 0 0 0 0 0 0 0
0 0 0 0 0 0 0 0 0 0 0 0 0 0 0 0 0 0 0 0 0 0 0 0 0 0 0 0 0 0 0 0 0 0 0 0 0 0 0 0 0 0 0 0
0 0 0 0 0 0 0 0 0 0 0 0 0 0 0 0 0 0 0 0 0 0 0 0 0 0 0 0 0 0 0 0 0 0 0 0 0 0 0 0 0 0 0 0
0 0 0 0 0 0 0 0 0 0 0 0 0 0 0 0 0 0 0 0 0 0 0 0 0 0 0 0 0 0 0 0 0 0 0 0 0 0 0 0 0 0 0 0
0 0 0 0 0 0 0 0 0 0 0 0 0 0 0 0 0 0 0 0 0 0 0 0 0 0 0 0 0 0 0 0 0 0 0 0 0 0 0 0 0 0 0 0
0 0 0 0 0 0 0 0 0 0 0 0 0 0 0 0 0 0 0 0 0 0 0 0 0 0 0 0 0 0 0 0 0 0 0 0 0 0 0 0 0 0 0 0
0 0 0 0 0 0 0 0 0 0 0 0 0 0 0 0 0 0 0 0 0 0 0 0 0 0 0 0 0 0 0 0 0 0 0 0 0 0 0 0 0 0 0 0
0 0 0 0 0 0 0 0 0 0 0 0 0 0 0 0 0 0 0 0 0 0 0 0 0 0 0 0 0 0 0 0 0 0 0 0 0 0 0 0 0 0 0 0
Height
5664 5665 5665 5666 5666 5666 5666 5667 5668 5670 5670 5671 5672 5673 5675 5676 5678 5680 5682 5684 5686 5688 5689 5691 5693 5695 5697 5700 5702 5704 5706 5708 5710 5712 5715 5717 5720 5722 5725 5727 5729 5731 5734 5735
5659 5659 5660 5659 5659 5659 5660 5660 5661 5662 5662 5662 5663 5665 5667 5668 5669 5672 5673 5675 5676 5678 5681 5683 5684 5686 5688 5690 5693 5695 5697 5699 5700 5703 5705 5708 5710 5713 5715 5717 5720 5722 5724 5726
5652 5653 5652 5652 5652 5653 5653 5654 5655 5654 5654 5654 5655 5657 5659 5660 5661 5663 5664 5666 5668 5670 5672 5673 5675 5677 5679 5681 5683 5685 5687 5689 5690 5692 5694 5697 5700 5702 5705 5707 5709 5712 5714 5716
5645 5646 5646 5645 5645 5646 5646 5647 5647 5646 5646 5646 5647 5647 5651 5652 5653 5655 5656 5658 5659 5661 5662 5664 5666 5667 5670 5672 5673 5675 5677 5679 5680 5682 5684 5686 5689 5691 5694 5696 5699 5701 5702 5705
5639 5639 5639 5639 5639 5638 5639 5639 5639 5639 5638 5638 5638 5638 5642 5643 5645 5646 5648 5649 5650 5651 5653 5655 5656 5658 5660 5662 5664 5666 5667 5669 5670 5672 5673 5675 5678 5680 5682 5685 5687 5689 5691 5693
5633 5633 5632 5632 5632 5631 5631 5631 5631 5630 5629 5629 5630 5629 5631 5634 5636 5637 5639 5640 5641 5642 5643 5645 5646 5648 5650 5652 5653 5655 5657 5658 5659 5661 5662 5664 5666 5668 5671 5673 5675 5678 5679 5681
5627 5626 5625 5625 5624 5624 5623 5623 5622 5620 5620 5620 5621 5620 5623 5626 5627 5628 5630 5631 5632 5633 5634 5635 5636 5638 5640 5641 5643 5644 5646 5647 5648 5650 5651 5653 5654 5657 5659 5661 5664 5666 5668 5670
5621 5620 5619 5618 5617 5616 5616 5615 5615 5613 5612 5612 5612 5612 5615 5616 5617 5619 5620 5621 5622 5623 5624 5625 5626 5627 5629 5630 5632 5633 5634 5636 5637 5638 5640 5641 5642 5644 5646 5649 5651 5653 5655 5657
5614 5614 5613 5611 5610 5609 5608 5607 5607 5605 5603 5602 5603 5604 5607 5607 5608 5609 5610 5611 5612 5612 5613 5614 5615 5616 5618 5619 5620 5621 5623 5624 5625 5627 5628 5629 5630 5632 5634 5635 5637 5639 5641 5643
5607 5607 5606 5604 5603 5602 5601 5600 5599 5596 5594 5593 5594 5596 5598 5598 5599 5599 5600 5601 5601 5602 5602 5603 5604 5605 5606 5607 5608 5609 5611 5612 5613 5614 5615 5616 5618 5619 5620 5622 5624 5626 5628 5630
5601 5599 5599 5597 5596 5594 5593 5592 5590 5588 5587 5585 5584 5589 5589 5589 5589 5590 5590 5590 5591 5591 5592 5592 5592 5593 5594 5595 5596 5597 5598 5599 5600 5601 5603 5604 5605 5606 5607 5608 5610 5612 5614 5616
5593 5591 5590 5590 5588 5586 5585 5584 5583 5581 5580 5578 5576 5581 5581 5581 5580 5580 5580 5580 5580 5580 5581 5581 5581 5582 5582 5583 5583 5584 5585 5587 5587 5589 5590 5591 5592 5592 5594 5595 5596 5598 5600 5602
5585 5583 5581 5580 5582 5579 5576 5576 5574 5573 5571 5569 5568 5572 5571 5571 5570 5570 5570 5569 5569 5569 5570 5570 5570 5570 5571 5571 5571 5572 5573 5574 5575 5576 5577 5578 5579 5580 5581 5582 5583 5585 5587 5588
5576 5574 5574 5573 5571 5569 5568 5568 5566 5563 5561 5560 5560 5561 5563 5561 5560 5559 5559 5559 5558 5559 5559 5559 5559 5559 5560 5560 5560 5560 5561 5562 5562 5563 5564 5565 5566 5567 5568 5569 5570 5572 5573 5574
5567 5565 5564 5563 5562 5560 5559 5558 5557 5554 5553 5551 5552 5551 5552 5551 5550 5549 5548 5548 5548 5548 5548 5548 5548 5548 5549 5549 5549 5549 5550 5550 5550 5551 5552 5553 5553 5554 5555 5556 5557 5558 5559 5560
5557 5555 5554 5553 5552 5549 5548 5549 5548 5546 5544 5542 5541 5542 5543 5541 5540 5538 5538 5537 5537 5537 5537 5537 5537 5537 5538 5538 5538 5538 5538 5538 5538 5539 5539 5540 5540 5541 5542 5543 5543 5545 5546 5547
5548 5546 5544 5542 5542 5538 5538 5541 5539 5537 5536 5534 5531 5533 5532 5530 5529 5528 5527 5527 5526 5526 5526 5526 5526 5526 5527 5527 5527 5527 5527 5527 5527 5527 5527 5527 5528 5528 5529 5530 5530 5531 5532 5533
5539 5536 5533 5531 5530 5527 5533 5530 5529 5527 5526 5525 5523 5522 5521 5520 5518 5517 5517 5516 5515 5515 5515 5515 5515 5515 5515 5515 5515 5515 5514 5514 5514 5514 5514 5515 5515 5515 5516 5517 5517 5518 5518 5518
5530 5527 5524 5521 5518 5517 5521 5521 5519 5517 5517 5516 5513 5512 5511 5509 5508 5508 5506 5505 5504 5504 5504 5503 5503 5503 5503 5503 5503 5503 5502 5502 5502 5502 5502 5502 5503 5503 5503 5504 5504 5504 5504 5505
5521 5518 5516 5512 5508 5507 5513 5512 5508 5507 5506 5507 5503 5502 5500 5498 5498 5499 5496 5495 5494 5493 5492 5492 5492 5491 5491 5491 5491 5491 5490 5490 5490 5490 5490 5490 5490 5490 5490 5490 5491 5490 5491 5491
5512 5509 5506 5503 5499 5499 5502 5501 5499 5498 5498 5495 5493 5491 5489 5488 5487 5487 5485 5484 5483 5482 5481 5480 5480 5480 5479 5479 5479 5478 5478 5478 5477 5477 5477 5478 5478 5477 5477 5477 5477 5477 5478 5478
5502 5499 5497 5494 5491 5494 5493 5490 5489 5487 5486 5484 5482 5480 5479 5477 5476 5475 5474 5473 5472 5471 5470 5469 5469 5468 5468 5467 5467 5466 5466 5465 5465 5465 5465 5465 5465 5465 5465 5465 5464 5464 5464 5465
5493 5492 5488 5486 5486 5484 5482 5480 5478 5477 5475 5473 5471 5470 5468 5467 5466 5464 5463 5462 5461 5460 5459 5458 5458 5457 5456 5456 5455 5455 5454 5453 5453 5453 5453 5453 5453 5452 5452 5452 5451 5451 5451 5451
5484 5481 5478 5476 5476 5474 5472 5470 5468 5466 5464 5462 5461 5459 5458 5456 5455 5454 5453 5452 5450 5449 5448 5448 5447 5446 5445 5444 5444 5443 5443 5442 5442 5441 5441 5441 5441 5440 5440 5439 5439 5439 5439 5439
5473 5470 5468 5466 5466 5463 5462 5459 5458 5456 5454 5452 5451 5449 5447 5446 5445 5444 5442 5441 5440 5439 5438 5437 5436 5435 5435 5434 5433 5432 5432 5431 5431 5430 5429 5429 5429 5428 5428 5427 5427 5426 5426 5426
5463 5461 5458 5456 5455 5452 5451 5449 5447 5445 5444 5442 5441 5439 5437 5436 5435 5433 5432 5430 5429 5428 5427 5426 5425 5425 5424 5423 5422 5422 5421 5420 5420 5419 5418 5417 5417 5416 5416 5415 5415 5414 5414 5413
Wind_Speed
25 26 26 26 26 27 28 28 28 28 29 30 31 31 31 32 32 33 33 33 33 34 35 36 35 35 36 36 36 37 38 39 39 39 40 41 40 40 39 40 40 39 39 39
26 27 26 27 27 28 28 29 29 29 30 31 31 32 32 33 34 34 34 34 34 34 35 35 36 36 36 36 37 37 38 39 40 40 41 41 41 40 41 42 42 42 41 41
26 27 27 27 27 28 29 29 30 30 31 32 33 33 32 33 35 35 35 35 35 36 36 36 37 37 37 37 37 38 38 39 40 41 41 42 42 41 42 43 44 43 43 43
26 26 27 27 27 28 29 30 31 31 32 33 34 36 33 32 33 34 34 34 35 37 37 37 37 37 37 38 38 38 39 40 40 41 42 43 45 44 43 44 44 44 44 45
26 26 27 27 27 28 29 29 31 32 33 34 35 37 34 33 33 33 34 35 36 37 37 38 38 39 39 39 40 40 40 41 41 42 42 43 45 46 45 45 45 45 46 46
26 26 27 27 28 29 30 30 32 34 35 36 35 37 36 33 33 33 34 35 36 37 38 39 39 39 40 40 41 42 42 42 43 43 44 44 46 47 47 46 46 47 46 47
27 27 27 28 28 29 30 31 32 35 36 37 36 37 36 34 34 34 35 36 36 37 38 39 40 40 40 40 41 41 42 42 44 45 45 45 47 48 49 48 48 49 48 48
27 27 27 28 29 30 31 32 33 35 36 37 37 37 35 34 34 34 34 35 36 37 38 39 39 40 40 41 41 42 42 43 44 45 46 46 46 48 49 49 50 50 49 50
27 28 27 29 30 30 31 32 33 35 36 37 37 37 36 33 34 34 35 36 37 38 39 39 40 40 40 42 42 43 44 44 45 45 46 47 47 48 50 50 50 51 51 51
28 29 29 29 30 31 32 32 32 33 35 37 37 35 34 33 33 34 35 36 37 38 39 40 41 41 41 42 43 44 45 45 46 46 46 47 48 49 50 51 51 51 52 52
30 31 31 30 30 30 31 32 33 35 36 38 39 36 34 33 33 34 35 36 36 37 39 40 40 41 41 41 43 44 45 45 46 46 46 46 47 48 50 51 52 52 52 52
31 32 32 31 31 31 31 32 32 34 36 38 40 38 35 35 35 35 36 36 37 37 39 40 40 41 41 41 42 43 45 46 46 45 45 46 46 47 48 49 51 52 52 52
32 33 34 33 32 32 33 32 33 34 36 38 39 38 37 36 36 36 37 37 37 38 39 39 40 41 41 41 40 41 42 43 44 45 45 46 46 47 48 48 49 51 52 52
34 35 35 35 34 34 34 34 35 36 37 38 38 37 36 36 37 37 38 37 37 38 39 40 41 41 40 40 40 39 40 41 42 44 44 45 46 47 48 48 49 50 51 52
34 36 36 36 35 35 35 35 36 37 37 38 38 37 35 35 36 37 38 37 37 37 38 39 39 40 40 40 40 40 41 41 42 44 45 45 46 47 48 47 48 49 50 50
35 36 37 37 36 37 37 35 36 37 37 38 39 38 36 36 36 37 37 38 38 38 38 39 39 39 40 40 41 41 42 42 43 43 44 45 46 46 47 47 48 49 50 51
36 37 38 38 37 38 38 34 35 36 37 37 38 37 37 37 37 37 38 38 39 39 40 40 40 40 41 41 41 42 42 43 43 43 44 45 45 46 47 47 48 49 50 51
37 37 38 39 39 40 36 34 34 36 36 36 37 36 36 37 36 37 37 38 38 39 40 40 40 40 41 42 42 42 43 43 43 43 43 44 45 46 47 48 48 49 49 49
36 37 38 39 39 39 36 34 35 37 36 36 36 35 36 37 37 37 37 37 38 38 39 39 40 41 42 42 42 42 42 43 43 43 43 44 45 45 46 47 47 48 48 48
36 37 38 39 39 39 37 36 36 37 37 36 37 37 37 37 37 36 37 38 38 39 39 39 40 40 41 41 41 41 41 41 42 43 43 43 44 44 45 45 46 46 47 47
35 35 36 37 38 38 36 36 36 37 37 37 37 37 37 38 38 37 37 38 38 38 38 39 39 40 40 40 40 41 41 41 41 42 43 43 44 44 44 44 45 45 46 47
35 35 35 35 37 36 34 35 35 36 37 38 37 37 37 37 37 37 38 38 38 37 38 38 39 39 39 40 40 40 40 40 41 41 42 43 43 43 43 43 43 44 45 45
35 35 35 36 36 36 35 35 35 36 37 38 38 37 37 36 37 37 37 37 37 37 37 37 37 37 38 39 39 39 39 39 39 40 41 41 42 42 42 42 43 44 44 45
37 36 37 37 36 36 36 36 36 37 38 38 38 37 37 37 36 36 36 36 36 36 36 36 36 36 37 38 38 38 37 37 37 38 39 41 41 41 41 42 42 43 43 43
38 37 37 37 37 36 37 37 38 38 38 38 37 36 36 36 36 36 36 36 36 36 35 36 36 37 36 37 37 36 36 36 36 37 38 40 41 41 41 41 41 41 42 43
38 38 38 38 37 37 37 37 38 38 38 37 37 36 36 35 35 35 35 35 35 35 35 35 35 35 35 36 36 36 37 37 37 37 38 38 39 39 40 40 40 40 40 40
Wind_Direction
270 267 264 265 265 265 264 263 262 262 263 262 261 258 256 255 251 251 252 251 250 249 249 249 249 250 251 251 252 251 251 251 251 252 251 251 252 253 252 252 253 252 254 255
271 268 268 265 264 264 264 264 264 265 265 264 261 259 256 255 253 252 252 252 251 250 250 250 250 251 252 252 253 253 252 252 251 251 251 251 251 252 253 254 253 253 254 255
272 269 267 266 265 265 265 265 265 265 266 265 263 261 259 257 254 253 253 253 253 252 251 252 252 251 252 253 253 253 253 252 252 252 252 251 250 251 252 253 253 254 255 255
273 271 268 266 265 266 266 266 266 266 267 266 265 263 259 257 256 255 253 253 252 251 252 253 253 253 253 254 254 254 254 254 253 253 253 253 251 251 253 253 255 255 255 255
275 273 270 268 266 266 266 267 267 266 267 268 266 266 263 259 257 255 254 253 253 253 254 253 253 254 254 254 253 254 255 255 254 254 254 255 254 253 254 254 254 255 255 256
278 275 272 270 268 268 268 268 268 267 267 267 268 267 265 263 261 257 256 255 256 256 256 255 254 255 254 254 254 254 255 256 256 255 256 256 255 254 254 255 255 256 256 257
279 277 274 272 271 271 270 269 269 269 269 269 269 268 267 265 263 260 259 259 258 258 258 257 256 256 255 255 256 255 255 256 256 256 257 257 256 255 255 255 256 257 257 257
284 279 278 275 274 274 272 271 270 272 272 272 270 269 269 268 264 261 260 260 260 260 260 259 257 257 256 257 257 257 256 256 256 257 258 258 257 256 255 256 257 258 258 258
287 284 281 279 276 275 274 272 271 272 273 273 272 272 271 270 267 263 261 261 261 261 261 260 260 259 258 258 258 258 257 257 257 257 259 259 259 258 257 257 257 257 258 259
287 284 282 281 278 275 274 273 271 271 275 276 275 275 274 271 269 267 265 263 263 262 262 261 261 259 259 260 260 260 259 258 258 259 260 259 259 259 258 258 257 257 257 258
288 287 284 281 279 277 275 272 271 273 273 276 277 277 275 275 272 270 269 267 266 265 264 263 263 261 260 261 261 261 260 260 260 260 262 261 260 261 259 258 258 258 258 258
288 287 285 284 282 279 276 274 272 273 274 275 277 278 275 276 273 271 270 268 266 266 266 265 263 262 262 263 263 263 261 261 261 262 262 262 260 260 259 259 259 258 258 259
287 286 286 283 281 279 276 273 273 274 274 275 277 278 276 276 274 272 271 269 267 266 266 266 265 263 263 264 264 263 262 261 262 262 263 263 262 261 260 260 260 260 259 259
285 284 284 284 283 281 278 275 273 273 274 275 277 279 276 276 274 273 271 270 268 267 266 266 265 265 266 266 265 265 264 264 264 264 264 264 263 262 261 262 261 261 260 260
285 284 283 282 281 279 279 277 275 274 275 276 278 278 277 275 275 274 272 271 270 269 267 267 266 266 267 267 266 267 267 266 266 265 265 265 264 262 261 262 262 262 261 261
285 284 283 281 280 279 278 276 275 275 276 277 277 276 276 276 275 274 272 270 269 269 269 267 266 267 268 268 268 268 268 268 267 266 265 265 264 263 262 262 262 263 263 262
285 285 284 282 280 278 278 280 277 275 277 279 279 278 276 276 275 274 272 271 271 270 268 268 268 268 269 269 270 269 269 269 269 268 266 265 264 263 263 263 263 263 264 263
286 285 285 283 281 278 282 280 278 277 277 279 280 280 278 277 276 275 274 273 272 272 271 270 269 268 269 269 270 270 271 270 269 268 267 266 265 265 265 265 265 264 264 263
286 285 284 283 281 280 280 280 280 279 278 279 279 280 279 277 275 276 276 275 274 273 272 271 269 270 270 270 271 271 271 270 269 270 269 267 267 267 266 266 265 266 265 265
287 286 284 283 282 283 283 282 281 280 280 280 280 280 279 278 276 275 275 276 276 275 273 272 271 271 271 271 271 271 270 269 269 269 268 268 267 267 268 267 267 267 266 265
287 287 284 282 281 282 284 284 283 282 283 283 283 282 280 279 278 276 275 276 277 276 274 273 272 272 271 271 271 271 271 270 270 269 268 268 268 267 268 268 267 267 267 266
289 287 285 282 281 283 285 284 282 282 282 283 284 283 282 281 279 278 277 277 277 276 275 274 273 272 272 272 271 271 272 271 271 270 269 269 268 268 268 268 268 268 267 267
287 286 285 282 282 282 282 281 281 281 282 283 283 282 282 281 281 279 278 278 278 276 275 274 273 272 273 273 272 273 273 272 271 270 269 269 269 270 270 269 269 269 269 268
287 285 283 282 281 280 279 279 281 282 282 283 282 282 282 282 282 281 280 279 278 277 275 274 274 273 274 274 274 273 273 272 272 271 271 270 270 270 271 270 270 270 270 269
286 284 283 283 282 279 278 278 279 280 281 281 281 282 281 282 282 281 281 280 279 277 276 275 276 275 274 275 274 273 272 271 272 273 273 272 271 271 271 272 271 270 270 271
286 283 282 282 281 280 279 279 279 279 279 280 280 282 281 280 281 282 282 280 279 278 276 276 276 276 274 274 274 273 272 272 272 273 274 273 272 271 271 271 271 270 270 270